Location: Saint-Palais-sur-Mer
(45.6429°N, 1.0859°W)
Time: 23:29:51
(UTC+01:00)

Vanguard 1 - Pass Details

Date: 11 February 2026
Orbit: 653 x 3818 km, 34.2° (Epoch: 12 March)

Event Time Altitude Azimuth Distance (km) Brightness Sun altitude
Rises 21:02:18 0° 264° (W) 6,560 15.4 -27.9°
Reaches altitude 10° 21:06:10 10° 261° (W) 5,874 14.9 -28.5°
Maximum altitude 21:25:39 59° 189° (S) 4,139 13.0 -31.9°
Enters shadow 21:35:42 40° 135° (SE) 4,830 13.0 -33.6°
